Location: Conjunto Santa Maria
(19.9513°S, 43.9599°W)
Time: 13:42:57
(UTC+00:00)

ATLAS 3B R/B - Pass Details

Date: 21 January 2021
Orbit: 1006 x 1189 km, 63.8° (Epoch: 02 March)

Event Time Altitude Azimuth Distance (km) Brightness Sun altitude
Rises 21:55:13 0° 343° (NNW) 4,029 5.7 -3.9°
Reaches altitude 10° 21:57:56 10° 345° (NNW) 3,086 5.0 -4.5°
Maximum altitude 22:05:18 69° 67° (ENE) 1,266 2.9 -6.1°
Drops below altitude 10° 22:12:47 10° 149° (SSE) 3,120 5.1 -7.7°
Sets 22:15:31 0° 151° (SSE) 4,076 5.7 -8.3°
